Location: Antioch Baptist Church
(32.6696°N, 85.7327°W)
Time: 21:10:22
(UTC+00:00)

Meteor 1-12 Rocket - Pass Details

Date: 14 July 2020
Orbit: 856 x 925 km, 81.2° (Epoch: 13 August)

Event Time Altitude Azimuth Distance (km) Brightness Sun altitude
Exits shadow 09:38:55 - 184° (S) 3,139 6.8 -12.8°
Reaches altitude 10° 09:40:36 10° 183° (S) 2,491 6.3 -12.5°
Maximum altitude 09:46:15 82° 97° (E) 882 4.4 -11.6°
Drops below altitude 10° 09:52:02 10° 10° (N) 2,545 7.4 -10.6°
Sets 09:54:31 0° 10° (N) 3,498 8.1 -10.1°
